Regional Weather Roundup
Issued by NWS

Home | Current Version | Previous Version | Text Only | Print | Product List | Glossary On
Versions: 1 2 3 4 5 6 7 8 9 10 11 12 13 14 15 16 17 18 19 20 21 22 23 24 25 26 27 28 29 30 31 32 33 34 35 36 37 38 39 40 41 42 43 44 45 46 47 48 49 50
000
ASUS42 KKEY 260810
RWRKEY

FLORIDA REGIONAL WEATHER ROUNDUP FOR THE FLORIDA KEYS
NATIONAL WEATHER SERVICE KEY WEST FLORIDA
400 AM EDT SUN APR 26 2015

...SOUTH FLORIDA AND THE KEYS...

CITY           SKY/WX    TMP DP  RH WIND       PRES   REMARKS
FORT MYERS     CLEAR     78  74  87 SW6       29.81F
SW REGIONAL AP CLEAR     73  71  93 SW6       29.82F
NAPLES         CLEAR     80  74  81 SW8       29.83F
MIAMI          CLEAR     77  72  84 SW3       29.84F
WEST KENDALL   CLEAR     73  72  96 NW3       29.84F
HOMESTEAD      CLEAR     73  72  98 S6        29.83F
MARATHON       PTCLDY    82  77  84 S9G17     29.84F HX  90
BOCA CHICA NAS CLEAR     81  74  79 S14       29.85F
KEY WEST INTL  CLEAR     82  76  81 S10       29.85F

...INTERNATIONAL WEATHER...

CITY           SKY/WX    TMP DP  RH WIND       PRES   REMARKS
NASSAU BAHAMAS PTCLDY    79  73  83 SW7       29.85
CANCUN MEXICO  CLEAR     81  77  89 SE9       29.85F
COZUMEL MEXICO PTCLDY    72  72 100 SE5       29.86F

ADJACENT COASTAL WATERS...

STATION/POSITION TIME  SKY/WX   TEMP    WIND        PRES    WAVE
                                AIR SEA DIR/SP/G            HT/PER
                 (UTC)          (F)     (DEG/KT/KT) (MB)    (FT/S)
PULASKI SHOAL LI 0700            81     190/ 11/ 12 1010.9F
SAND KEY         0750            81     190/ 13/ 16 1010.6F
SOMBRERO KEY     0800            81     190/ 15/ 15 1011.1F
LONG KEY         0700            82 87  200/ 17/ 18 1011.7F
MOLASSES REEF    0800            81 81  230/ 12/ 14 1010.7F
FOWEY ROCKS      NOT AVBL

$$



USA.gov is the U.S. government's official web portal to all federal, state and local government web resources and services.